User: anonymous   Login
Location: Beutels
(47.8767°N, 9.8584°E)
Time: 10:18:12
(UTC+00:00)
Language:

Okean 3 Rocket - Orbit

View from above orbital plane
View from above orbital plane
View from above satellite
View from above satellite

Ground track
Ground track

The orbit data is extracted from the following two-line orbital elements,

1 21398U 91039B   25198.51412198  .00000336  00000-0  39740-4 0  9990
2 21398  82.5229 356.0994 0019822 216.1534 143.8341 14.81570864840609
Epoch (UTC): 17 July 2025 12:20:20
Eccentricity: 0.0019822
inclination: 82.5229°
perigee height: 610 km
apogee height: 638 km
right ascension of ascending node: 356.0994°
argument of perigee: 216.1534°
revolutions per day: 14.81570864
mean anomaly at epoch: 143.8341°
orbit number at epoch: 84060

The dashed part of the orbit path shows where the satellite is in the earth's shadow,  

DLR